Location: Haliburton Scout Reserve
(45.0900°N, 78.3200°W)
Time: 05:55:33
(UTC-05:00)

YUBILEINY - Visible Passes

Search period start: 28 November 2023 00:00
Search period end: 08 December 2023 00:00
Orbit: 1478 x 1508 km, 82.5° (Epoch: 28 November)

Date Brightness Start Highest point End Pass type
(mag) Time Alt. Az. Time Alt. Az. Time Alt. Az.
28 Nov ? 20:18:04 10° N 20:20:01 18° N 20:20:01 18° N visible
28 Nov ? 22:14:57 10° NNW 22:15:55 14° NNW 22:15:55 14° NNW visible
29 Nov ? 19:29:03 10° N 19:30:54 15° NNE 19:30:54 15° NNE visible
29 Nov ? 21:25:03 10° N 21:26:49 18° NNW 21:26:49 18° NNW visible
30 Nov ? 18:40:57 10° NNE 18:41:48 11° NNE 18:41:48 11° NNE visible
30 Nov ? 20:35:26 10° N 20:37:43 20° N 20:37:43 20° N visible
30 Nov ? 22:32:59 10° NNW 22:33:37 12° NNW 22:33:37 12° NNW visible
01 Dec ? 19:46:08 10° N 19:48:38 19° NNE 19:48:38 19° NNE visible
01 Dec ? 21:42:46 10° NNW 21:44:33 18° NNW 21:44:33 18° NNW visible
02 Dec ? 18:57:18 10° NNE 18:59:35 16° NNE 18:59:35 16° NNE visible
02 Dec ? 20:52:57 10° N 20:55:30 22° N 20:55:30 22° N visible
03 Dec ? 18:09:58 10° NNE 18:10:34 11° NE 18:10:34 11° NE visible
03 Dec ? 20:03:26 10° N 20:06:29 24° N 20:06:29 24° N visible
03 Dec ? 22:00:42 10° NNW 22:02:24 16° NNW 22:02:24 16° NNW visible
04 Dec ? 19:14:15 10° N 19:17:30 21° NNE 19:17:30 21° NNE visible
04 Dec ? 21:10:37 10° NNW 21:13:24 23° NNW 21:13:24 23° NNW visible
05 Dec ? 18:25:39 10° NNE 18:28:32 16° NE 18:28:32 16° NE visible
05 Dec ? 20:20:53 10° N 20:24:27 28° N 20:24:27 28° N visible
05 Dec ? 22:18:55 10° NNW 22:20:23 14° NW 22:20:23 14° NW visible
06 Dec ? 19:31:28 10° N 19:35:33 28° NNE 19:35:33 28° NNE visible
06 Dec ? 21:28:27 10° NNW 21:31:29 23° NNW 21:31:29 23° NNW visible
07 Dec ? 18:42:24 10° N 18:46:42 22° NE 18:46:42 22° NE visible
07 Dec ? 20:38:29 10° NNW 20:42:37 32° NNW 20:42:37 32° NNW visible
07 Dec ? 22:37:46 10° NW 22:38:34 12° NW 22:38:34 12° NW visible
